Weather History for Menominee, MI

Change the Weather History Date:

Saturday, September 21, 2013

  Actual Average Record
Temperature  
Mean Temperature 48 °F -  
Max Temperature 57 °F 66 °F 84 °F (2007)
Min Temperature 42 °F 48 °F 32 °F (1956)
Degree Days  
Heating Degree Days 16    
Moisture  
Dew Point 43 °F    
Average Humidity 74    
Maximum Humidity 100    
Minimum Humidity 54    
Precipitation  
Precipitation 0.00 in - - ()
Sea Level Pressure  
Sea Level Pressure 29.86 in    
Wind  
Wind Speed 6 mph (NNW)    
Max Wind Speed 17 mph    
Max Gust Speed 22 mph    
Visibility 10 miles    
Events      
Averages and records for this station are not official NWS values.
T = Trace of Precipitation, MM = Missing Value Source: NWS Daily Summary

Daily Weather History Graph

Daily Weather History Graph

Search for Another Location

Airport:

Trip Planner

Search our weather history database for the weather conditions in past years. The results will help you decide how hot, cold, wet, or windy it might be!

Date:

Astronomy

Sep. 21, 2013 Rise Set
Actual Time 6:36 AM CDT 6:49 PM CDT
Civil Twilight 6:07 AM CDT 7:18 PM CDT
Nautical Twilight 5:32 AM CDT 7:53 PM CDT
Astronomical Twilight 4:57 AM CDT 8:28 PM CDT
Moon 7:50 PM CDT (9/21) 9:03 AM CDT (9/21)
Length of Visible Light 13h 11m
Length of Day
12h 12m
Waning Gibbous, 94% of the Moon is Illuminated
Sep 21
Waning Gibbous
Sep 26
Last Quarter
Oct 4
New
Oct 11
First Quarter
Oct 18
Full

Hourly Weather History & Observations

Time (CDT) Temp. Windchill Dew Point Humidity Pressure Visibility Wind Dir Wind Speed Gust Speed Precip Events Conditions
12:15 AM 55.4 °F - 48.2 °F 77% 29.78 in 10.0 mi NNW 6.9 mph - N/A   Overcast
12:35 AM 55.4 °F - 48.2 °F 77% 29.78 in 10.0 mi NNW 6.9 mph - N/A   Scattered Clouds
12:55 AM 53.6 °F - 48.2 °F 82% 29.78 in 10.0 mi NNW 5.8 mph - N/A   Partly Cloudy
1:15 AM 53.6 °F - 48.2 °F 82% 29.78 in 10.0 mi NNW 4.6 mph - N/A   Clear
1:35 AM 53.6 °F - 48.2 °F 82% 29.79 in 10.0 mi NNW 4.6 mph - N/A   Clear
1:55 AM 51.8 °F - 48.2 °F 88% 29.79 in 10.0 mi NNW 3.5 mph - N/A   Clear
2:15 AM 51.8 °F - 46.4 °F 82% 29.79 in 10.0 mi NNW 3.5 mph - N/A   Clear
2:35 AM 51.8 °F - 46.4 °F 82% 29.79 in 10.0 mi NW 3.5 mph - N/A   Clear
2:55 AM 51.8 °F - 46.4 °F 82% 29.79 in 10.0 mi Calm Calm - N/A   Clear
3:15 AM 51.8 °F - 46.4 °F 82% 29.78 in 10.0 mi Calm Calm - N/A   Clear
3:35 AM 51.8 °F - 46.4 °F 82% 29.78 in 10.0 mi Calm Calm - N/A   Clear
3:55 AM 48.2 °F - 46.4 °F 93% 29.79 in 8.0 mi Calm Calm - N/A   Clear
4:15 AM 44.6 °F - 44.6 °F 100% 29.79 in 10.0 mi Calm Calm - N/A   Clear
4:35 AM 48.2 °F - 46.4 °F 93% 29.79 in 10.0 mi Calm Calm - N/A   Clear
4:55 AM 50.0 °F - 46.4 °F 87% 29.79 in 10.0 mi Calm Calm - N/A   Clear
5:15 AM 48.2 °F - 44.6 °F 87% 29.80 in 10.0 mi WNW 3.5 mph - N/A   Clear
5:35 AM 46.4 °F 45.2 °F 46.4 °F 100% 29.80 in 10.0 mi West 3.5 mph - N/A   Clear
5:55 AM 48.2 °F - 44.6 °F 87% 29.80 in 10.0 mi Calm Calm - N/A   Partly Cloudy
6:15 AM 48.2 °F - 46.4 °F 93% 29.80 in 10.0 mi Calm Calm - N/A   Mostly Cloudy
6:35 AM 46.4 °F 44.3 °F 44.6 °F 93% 29.81 in 10.0 mi WNW 4.6 mph - N/A   Mostly Cloudy
6:55 AM 46.4 °F - 44.6 °F 93% 29.81 in 10.0 mi Calm Calm - N/A   Scattered Clouds
7:15 AM 48.2 °F - 44.6 °F 87% 29.81 in 10.0 mi WNW 3.5 mph - N/A   Partly Cloudy
7:35 AM 46.4 °F 45.2 °F 44.6 °F 93% 29.82 in 10.0 mi NW 3.5 mph - N/A   Mostly Cloudy
7:55 AM 48.2 °F - 46.4 °F 93% 29.82 in 10.0 mi NNW 3.5 mph - N/A   Scattered Clouds
8:15 AM 50.0 °F - 46.4 °F 87% 29.82 in 10.0 mi NNW 8.1 mph - N/A   Clear
8:35 AM 51.8 °F - 46.4 °F 82% 29.83 in 10.0 mi NNW 8.1 mph - N/A   Scattered Clouds
8:55 AM 51.8 °F - 46.4 °F 82% 29.83 in 10.0 mi NNW 11.5 mph - N/A   Scattered Clouds
9:15 AM 53.6 °F - 46.4 °F 77% 29.83 in 10.0 mi North 15.0 mph 21.9 mph N/A   Partly Cloudy
9:35 AM 53.6 °F - 44.6 °F 72% 29.84 in 10.0 mi North 13.8 mph 19.6 mph N/A   Mostly Cloudy
9:55 AM 53.6 °F - 46.4 °F 77% 29.84 in 10.0 mi North 15.0 mph - N/A   Mostly Cloudy
10:15 AM 53.6 °F - 44.6 °F 72% 29.84 in 10.0 mi North 11.5 mph 20.7 mph N/A   Mostly Cloudy
10:35 AM 55.4 °F - 44.6 °F 67% 29.84 in 10.0 mi NNW 6.9 mph - N/A   Mostly Cloudy
10:55 AM 55.4 °F - 44.6 °F 67% 29.84 in 10.0 mi North 13.8 mph 19.6 mph N/A   Mostly Cloudy
11:15 AM 53.6 °F - 42.8 °F 67% 29.84 in 10.0 mi NW 6.9 mph 18.4 mph N/A   Overcast
11:35 AM 53.6 °F - 42.8 °F 67% 29.85 in 10.0 mi NNW 11.5 mph 20.7 mph N/A   Overcast
11:55 AM 55.4 °F - 41.0 °F 58% 29.85 in 10.0 mi North 15.0 mph 21.9 mph N/A   Overcast
12:15 PM 55.4 °F - 39.2 °F 54% 29.86 in 10.0 mi NNW 12.7 mph 19.6 mph N/A   Mostly Cloudy
12:35 PM 55.4 °F - 39.2 °F 54% 29.86 in 10.0 mi NNW 9.2 mph 20.7 mph N/A   Scattered Clouds
12:55 PM 55.4 °F - 39.2 °F 54% 29.86 in 10.0 mi North 10.4 mph 19.6 mph N/A   Mostly Cloudy
1:15 PM 55.4 °F - 39.2 °F 54% 29.86 in 10.0 mi North 17.3 mph 21.9 mph N/A   Overcast
1:35 PM 55.4 °F - 39.2 °F 54% 29.86 in 10.0 mi NNW 12.7 mph 21.9 mph N/A   Mostly Cloudy
1:55 PM 55.4 °F - 39.2 °F 54% 29.87 in 10.0 mi NNW 12.7 mph 20.7 mph N/A   Mostly Cloudy
2:15 PM 55.4 °F - 39.2 °F 54% 29.87 in 10.0 mi NNW 13.8 mph 19.6 mph N/A   Overcast
2:35 PM 55.4 °F - 39.2 °F 54% 29.87 in 7.0 mi NNW 15.0 mph - N/A   Overcast
2:55 PM 53.6 °F - 39.2 °F 58% 29.88 in 9.0 mi NNW 8.1 mph - N/A   Overcast
3:15 PM 53.6 °F - 41.0 °F 62% 29.88 in 10.0 mi NNW 6.9 mph - N/A   Overcast
3:35 PM 53.6 °F - 41.0 °F 62% 29.88 in 10.0 mi NNW 11.5 mph - N/A   Overcast
3:55 PM 53.6 °F - 41.0 °F 62% 29.88 in 10.0 mi North 8.1 mph - N/A   Overcast
4:15 PM 53.6 °F - 39.2 °F 58% 29.88 in 10.0 mi NNW 8.1 mph - N/A   Overcast
4:35 PM 53.6 °F - 41.0 °F 62% 29.89 in 10.0 mi NNW 9.2 mph - N/A   Overcast
4:55 PM 53.6 °F - 41.0 °F 62% 29.89 in 10.0 mi NNW 9.2 mph - N/A   Overcast
5:15 PM 53.6 °F - 41.0 °F 62% 29.90 in 6.0 mi North 6.9 mph - N/A   Overcast
5:35 PM 51.8 °F - 41.0 °F 67% 29.90 in 10.0 mi North 8.1 mph - N/A   Overcast
5:55 PM 51.8 °F - 41.0 °F 67% 29.90 in 10.0 mi NNW 5.8 mph - N/A   Overcast
6:15 PM 51.8 °F - 41.0 °F 67% 29.90 in 10.0 mi NNW 6.9 mph - N/A   Overcast
6:35 PM 51.8 °F - 39.2 °F 62% 29.91 in 10.0 mi North 10.4 mph - N/A   Overcast
6:55 PM 51.8 °F - 39.2 °F 62% 29.91 in 10.0 mi North 5.8 mph - N/A   Overcast
7:15 PM 50.0 °F - 39.2 °F 66% 29.91 in 10.0 mi NNW 5.8 mph - N/A   Overcast
7:35 PM 50.0 °F - 39.2 °F 66% 29.92 in 10.0 mi NNW 6.9 mph - N/A   Overcast
7:55 PM 50.0 °F - 39.2 °F 66% 29.93 in 10.0 mi NNW 3.5 mph - N/A   Overcast
8:15 PM 50.0 °F - 39.2 °F 66% 29.94 in 10.0 mi NNW 5.8 mph - N/A   Overcast
8:35 PM 48.2 °F - 39.2 °F 71% 29.94 in 10.0 mi NNW 4.6 mph - N/A   Overcast
8:55 PM 48.2 °F - 39.2 °F 71% 29.94 in 10.0 mi NNW 5.8 mph - N/A   Overcast
9:15 PM 48.2 °F - 39.2 °F 71% 29.95 in 10.0 mi North 6.9 mph - N/A   Overcast
9:35 PM 48.2 °F - 39.2 °F 71% 29.95 in 10.0 mi North 4.6 mph - N/A   Overcast
9:55 PM 48.2 °F - 39.2 °F 71% 29.96 in 10.0 mi NNW 4.6 mph - N/A   Overcast
10:15 PM 48.2 °F - 39.2 °F 71% 29.96 in 10.0 mi North 3.5 mph - N/A   Overcast
10:35 PM 48.2 °F - 39.2 °F 71% 29.96 in 10.0 mi North 3.5 mph - N/A   Overcast
10:55 PM 46.4 °F 45.2 °F 39.2 °F 76% 29.96 in 10.0 mi North 3.5 mph - N/A   Scattered Clouds
11:15 PM 44.6 °F - 39.2 °F 81% 29.96 in 10.0 mi Calm Calm - N/A   Clear
11:35 PM 42.8 °F - 41.0 °F 93% 29.97 in 10.0 mi Calm Calm - N/A   Clear
11:55 PM 42.8 °F - 39.2 °F 87% 29.97 in 10.0 mi Calm Calm - N/A   Clear